Time,TemperatureF,DewpointF,PressureIn,WindDirection,WindDirectionDegrees,WindSpeedMPH,WindSpeedGustMPH,Humidity,HourlyPrecipIn,Conditions,Clouds,dailyrainin,SoftwareType,DateUTC
2013-04-21 00:00:00,34.3,21.0,30.18,NNE,30,0.0,-999.0,59,-99.99,,,0.00,weatherlink.com 1.10,2013-04-21 04:00:00,
2013-04-21 00:15:00,33.7,22.0,30.19,NNE,14,4.0,-999.0,62,-99.99,,,0.00,weatherlink.com 1.10,2013-04-21 04:15:00,
2013-04-21 00:30:00,33.2,21.0,30.20,NW,312,3.0,-999.0,62,-99.99,,,0.00,weatherlink.com 1.10,2013-04-21 04:30:00,
2013-04-21 00:45:00,32.9,21.0,30.20,South,190,1.0,-999.0,63,-99.99,,,0.00,weatherlink.com 1.10,2013-04-21 04:45:00,
2013-04-21 01:00:00,32.7,21.0,30.21,WNW,290,1.0,-999.0,62,-99.99,,,0.00,weatherlink.com 1.10,2013-04-21 05:00:00,
2013-04-21 01:15:00,32.4,20.0,30.23,NNW,328,0.0,-999.0,60,-99.99,,,0.00,weatherlink.com 1.10,2013-04-21 05:15:00,
2013-04-21 01:30:00,32.4,20.0,30.22,West,279,0.0,-999.0,61,-99.99,,,0.00,weatherlink.com 1.10,2013-04-21 05:30:00,
2013-04-21 01:45:00,32.3,21.0,30.23,SSW,201,0.0,-999.0,63,-99.99,,,0.00,weatherlink.com 1.10,2013-04-21 05:45:00,
2013-04-21 02:01:00,32.2,20.0,30.23,SSE,161,4.0,-999.0,60,-99.99,,,0.00,weatherlink.com 1.10,2013-04-21 06:01:00,
2013-04-21 02:16:00,32.1,19.0,30.24,NW,307,0.0,-999.0,60,-99.99,,,0.00,weatherlink.com 1.10,2013-04-21 06:16:00,
2013-04-21 02:31:00,32.0,20.0,30.24,West,261,0.0,-999.0,61,-99.99,,,0.00,weatherlink.com 1.10,2013-04-21 06:31:00,
2013-04-21 02:46:00,31.8,20.0,30.25,West,265,0.0,-999.0,62,-99.99,,,0.00,weatherlink.com 1.10,2013-04-21 06:46:00,
2013-04-21 03:01:00,31.6,21.0,30.26,North,5,1.0,-999.0,66,-99.99,,,0.00,weatherlink.com 1.10,2013-04-21 07:01:00,
2013-04-21 03:16:00,30.7,23.0,30.28,WNW,296,0.0,-999.0,72,-99.99,,,0.00,weatherlink.com 1.10,2013-04-21 07:16:00,
2013-04-21 03:31:00,30.2,22.0,30.28,NNE,13,3.0,-999.0,70,-99.99,,,0.00,weatherlink.com 1.10,2013-04-21 07:31:00,
2013-04-21 03:46:00,30.0,21.0,30.29,NNW,327,2.0,-999.0,69,-99.99,,,0.00,weatherlink.com 1.10,2013-04-21 07:46:00,
2013-04-21 04:01:00,29.9,20.0,30.30,NNE,24,1.0,-999.0,68,-99.99,,,0.00,weatherlink.com 1.10,2013-04-21 08:01:00,
2013-04-21 04:16:00,29.8,20.0,30.31,NNE,24,2.0,-999.0,68,-99.99,,,0.00,weatherlink.com 1.10,2013-04-21 08:16:00,
2013-04-21 04:31:00,29.7,20.0,30.32,NNW,348,1.0,-999.0,68,-99.99,,,0.00,weatherlink.com 1.10,2013-04-21 08:31:00,
2013-04-21 04:46:00,29.5,19.0,30.33,ENE,74,4.0,-999.0,65,-99.99,,,0.00,weatherlink.com 1.10,2013-04-21 08:46:00,
2013-04-21 05:01:00,29.2,19.0,30.34,WNW,298,2.0,-999.0,66,-99.99,,,0.00,weatherlink.com 1.10,2013-04-21 09:01:00,
2013-04-21 05:16:00,29.3,20.0,30.34,NW,312,2.0,-999.0,68,-99.99,,,0.00,weatherlink.com 1.10,2013-04-21 09:16:00,
2013-04-21 05:31:00,29.1,20.0,30.36,WSW,257,0.0,-999.0,68,-99.99,,,0.00,weatherlink.com 1.10,2013-04-21 09:31:00,
2013-04-21 05:46:00,28.8,20.0,30.37,NNW,336,2.0,-999.0,69,-99.99,,,0.00,weatherlink.com 1.10,2013-04-21 09:46:00,
2013-04-21 06:01:00,28.3,19.0,30.38,South,184,2.0,-999.0,68,-99.99,,,0.00,weatherlink.com 1.10,2013-04-21 10:01:00,
2013-04-21 06:16:00,27.8,19.0,30.39,WNW,294,0.0,-999.0,69,-99.99,,,0.00,weatherlink.com 1.10,2013-04-21 10:16:00,
2013-04-21 06:31:00,27.6,19.0,30.41,West,261,1.0,-999.0,70,-99.99,,,0.00,weatherlink.com 1.10,2013-04-21 10:31:00,
2013-04-21 06:46:00,27.6,19.0,30.42,NW,319,1.0,-999.0,70,-99.99,,,0.00,weatherlink.com 1.10,2013-04-21 10:46:00,
2013-04-21 07:01:00,27.6,19.0,30.43,West,279,0.0,-999.0,70,-99.99,,,0.00,weatherlink.com 1.10,2013-04-21 11:01:00,
2013-04-21 07:16:00,27.8,18.0,30.44,NNW,338,0.0,-999.0,68,-99.99,,,0.00,weatherlink.com 1.10,2013-04-21 11:16:00,
2013-04-21 07:31:00,28.1,18.0,30.45,North,5,3.0,-999.0,67,-99.99,,,0.00,weatherlink.com 1.10,2013-04-21 11:31:00,
2013-04-21 07:46:00,28.3,19.0,30.46,WNW,284,0.0,-999.0,67,-99.99,,,0.00,weatherlink.com 1.10,2013-04-21 11:46:00,
2013-04-21 08:02:00,28.6,19.0,30.47,NNW,346,3.0,-999.0,67,-99.99,,,0.00,weatherlink.com 1.10,2013-04-21 12:02:00,
2013-04-21 08:17:00,28.6,18.0,30.48,North,355,1.0,-999.0,64,-99.99,,,0.00,weatherlink.com 1.10,2013-04-21 12:17:00,
2013-04-21 08:32:00,29.2,19.0,30.49,NNE,13,3.0,-999.0,65,-99.99,,,0.00,weatherlink.com 1.10,2013-04-21 12:32:00,
2013-04-21 08:47:00,29.6,18.0,30.49,NNW,346,2.0,-999.0,63,-99.99,,,0.00,weatherlink.com 1.10,2013-04-21 12:47:00,
2013-04-21 09:02:00,29.7,19.0,30.50,SW,224,0.0,-999.0,65,-99.99,,,0.00,weatherlink.com 1.10,2013-04-21 13:02:00,
2013-04-21 09:17:00,30.0,18.0,30.50,WNW,288,0.0,-999.0,62,-99.99,,,0.00,weatherlink.com 1.10,2013-04-21 13:17:00,
2013-04-21 09:32:00,30.4,18.0,30.51,NNE,32,3.0,-999.0,60,-99.99,,,0.00,weatherlink.com 1.10,2013-04-21 13:32:00,
2013-04-21 09:47:00,31.1,17.0,30.52,NNE,19,0.0,-999.0,57,-99.99,,,0.00,weatherlink.com 1.10,2013-04-21 13:47:00,
2013-04-21 10:02:00,31.9,18.0,30.52,WSW,257,1.0,-999.0,57,-99.99,,,0.00,weatherlink.com 1.10,2013-04-21 14:02:00,
2013-04-21 10:17:00,32.5,18.0,30.53,ESE,107,0.0,-999.0,55,-99.99,,,0.00,weatherlink.com 1.10,2013-04-21 14:17:00,
2013-04-21 10:32:00,33.1,19.0,30.54,WSW,243,0.0,-999.0,57,-99.99,,,0.00,weatherlink.com 1.10,2013-04-21 14:32:00,
2013-04-21 10:47:00,33.8,18.0,30.54,West,262,1.0,-999.0,53,-99.99,,,0.00,weatherlink.com 1.10,2013-04-21 14:47:00,
2013-04-21 11:02:00,34.1,18.0,30.55,NW,322,3.0,-999.0,53,-99.99,,,0.00,weatherlink.com 1.10,2013-04-21 15:02:00,
2013-04-21 11:17:00,35.2,19.0,30.55,NNE,14,2.0,-999.0,52,-99.99,,,0.00,weatherlink.com 1.10,2013-04-21 15:17:00,
2013-04-21 11:32:00,35.6,18.0,30.54,NE,43,1.0,-999.0,50,-99.99,,,0.00,weatherlink.com 1.10,2013-04-21 15:32:00,
2013-04-21 11:47:00,36.0,18.0,30.54,WNW,286,1.0,-999.0,49,-99.99,,,0.00,weatherlink.com 1.10,2013-04-21 15:47:00,
2013-04-21 12:02:00,37.2,19.0,30.54,WNW,290,1.0,-999.0,48,-99.99,,,0.00,weatherlink.com 1.10,2013-04-21 16:02:00,
2013-04-21 12:17:00,37.6,19.0,30.55,WNW,291,1.0,-999.0,47,-99.99,,,0.00,weatherlink.com 1.10,2013-04-21 16:17:00,
2013-04-21 12:32:00,38.4,18.0,30.55,West,278,4.0,-999.0,44,-99.99,,,0.00,weatherlink.com 1.10,2013-04-21 16:32:00,
2013-04-21 12:47:00,39.6,18.0,30.54,North,360,4.0,-999.0,41,-99.99,,,0.00,weatherlink.com 1.10,2013-04-21 16:47:00,
2013-04-21 13:02:00,40.1,17.0,30.55,NW,319,3.0,-999.0,40,-99.99,,,0.00,weatherlink.com 1.10,2013-04-21 17:02:00,
2013-04-21 13:17:00,40.4,19.0,30.54,West,261,4.0,-999.0,42,-99.99,,,0.00,weatherlink.com 1.10,2013-04-21 17:17:00,
2013-04-21 13:32:00,41.3,18.0,30.55,NNW,338,3.0,-999.0,40,-99.99,,,0.00,weatherlink.com 1.10,2013-04-21 17:32:00,
2013-04-21 13:47:00,42.4,18.0,30.55,NNW,341,3.0,-999.0,37,-99.99,,,0.00,weatherlink.com 1.10,2013-04-21 17:47:00,
2013-04-21 14:02:00,43.6,17.0,30.55,WNW,299,2.0,-999.0,35,-99.99,,,0.00,weatherlink.com 1.10,2013-04-21 18:02:00,
2013-04-21 14:17:00,43.4,17.0,30.55,North,360,2.0,-999.0,35,-99.99,,,0.00,weatherlink.com 1.10,2013-04-21 18:17:00,
2013-04-21 14:32:00,43.2,17.0,30.55,WNW,298,0.0,-999.0,35,-99.99,,,0.00,weatherlink.com 1.10,2013-04-21 18:32:00,
2013-04-21 14:47:00,43.2,16.0,30.55,NW,315,1.0,-999.0,34,-99.99,,,0.00,weatherlink.com 1.10,2013-04-21 18:47:00,
2013-04-21 15:02:00,44.7,17.0,30.55,NNW,331,2.0,-999.0,33,-99.99,,,0.00,weatherlink.com 1.10,2013-04-21 19:02:00,
2013-04-21 15:17:00,43.8,18.0,30.55,NW,306,2.0,-999.0,35,-99.99,,,0.00,weatherlink.com 1.10,2013-04-21 19:17:00,
2013-04-21 15:48:00,45.3,18.0,30.55,NNW,339,3.0,-999.0,34,-99.99,,,0.00,weatherlink.com 1.10,2013-04-21 19:48:00,
2013-04-21 16:03:00,45.3,18.0,30.55,NE,44,3.0,-999.0,33,-99.99,,,0.00,weatherlink.com 1.10,2013-04-21 20:03:00,
2013-04-21 16:18:00,45.8,17.0,30.56,NE,38,3.0,-999.0,32,-99.99,,,0.00,weatherlink.com 1.10,2013-04-21 20:18:00,
2013-04-21 16:33:00,45.3,17.0,30.55,ENE,58,0.0,-999.0,32,-99.99,,,0.00,weatherlink.com 1.10,2013-04-21 20:33:00,
2013-04-21 16:48:00,45.7,16.0,30.56,NW,315,1.0,-999.0,31,-99.99,,,0.00,weatherlink.com 1.10,2013-04-21 20:48:00,
2013-04-21 17:03:00,45.3,17.0,30.56,North,360,0.0,-999.0,32,-99.99,,,0.00,weatherlink.com 1.10,2013-04-21 21:03:00,
2013-04-21 17:18:00,45.3,17.0,30.56,NW,323,1.0,-999.0,32,-99.99,,,0.00,weatherlink.com 1.10,2013-04-21 21:18:00,
2013-04-21 17:33:00,44.2,17.0,30.57,West,275,3.0,-999.0,34,-99.99,,,0.00,weatherlink.com 1.10,2013-04-21 21:33:00,
2013-04-21 17:48:00,44.2,17.0,30.57,WSW,249,2.0,-999.0,33,-99.99,,,0.00,weatherlink.com 1.10,2013-04-21 21:48:00,
2013-04-21 18:03:00,43.7,16.0,30.58,North,360,1.0,-999.0,33,-99.99,,,0.00,weatherlink.com 1.10,2013-04-21 22:03:00,
2013-04-21 18:18:00,43.4,16.0,30.58,WNW,301,1.0,-999.0,33,-99.99,,,0.00,weatherlink.com 1.10,2013-04-21 22:18:00,
2013-04-21 18:33:00,43.3,18.0,30.58,WNW,301,0.0,-999.0,36,-99.99,,,0.00,weatherlink.com 1.10,2013-04-21 22:33:00,
2013-04-21 18:48:00,42.5,16.0,30.59,NE,36,0.0,-999.0,35,-99.99,,,0.00,weatherlink.com 1.10,2013-04-21 22:48:00,
2013-04-21 19:03:00,41.9,17.0,30.59,NNE,28,0.0,-999.0,36,-99.99,,,0.00,weatherlink.com 1.10,2013-04-21 23:03:00,
2013-04-21 19:18:00,41.0,16.0,30.60,North,11,0.0,-999.0,37,-99.99,,,0.00,weatherlink.com 1.10,2013-04-21 23:18:00,
2013-04-21 19:33:00,39.8,17.0,30.61,North,11,0.0,-999.0,39,-99.99,,,0.00,weatherlink.com 1.10,2013-04-21 23:33:00,
2013-04-21 19:48:00,38.1,19.0,30.61,North,11,0.0,-999.0,46,-99.99,,,0.00,weatherlink.com 1.10,2013-04-21 23:48:00,
2013-04-21 20:03:00,36.3,21.0,30.62,North,11,0.0,-999.0,55,-99.99,,,0.00,weatherlink.com 1.10,2013-04-22 00:03:00,
2013-04-21 20:18:00,35.0,21.0,30.63,North,11,0.0,-999.0,56,-99.99,,,0.00,weatherlink.com 1.10,2013-04-22 00:18:00,
2013-04-21 20:33:00,34.1,22.0,30.64,North,11,0.0,-999.0,62,-99.99,,,0.00,weatherlink.com 1.10,2013-04-22 00:33:00,
2013-04-21 20:48:00,33.0,21.0,30.64,North,11,0.0,-999.0,61,-99.99,,,0.00,weatherlink.com 1.10,2013-04-22 00:48:00,
2013-04-21 21:03:00,32.3,21.0,30.65,North,11,0.0,-999.0,64,-99.99,,,0.00,weatherlink.com 1.10,2013-04-22 01:03:00,
2013-04-21 21:18:00,31.8,21.0,30.65,North,11,0.0,-999.0,64,-99.99,,,0.00,weatherlink.com 1.10,2013-04-22 01:18:00,
2013-04-21 21:33:00,31.5,22.0,30.66,North,11,0.0,-999.0,67,-99.99,,,0.00,weatherlink.com 1.10,2013-04-22 01:33:00,
2013-04-21 21:48:00,31.0,22.0,30.66,North,11,0.0,-999.0,68,-99.99,,,0.00,weatherlink.com 1.10,2013-04-22 01:48:00,
2013-04-21 22:03:00,30.8,21.0,30.66,North,11,0.0,-999.0,67,-99.99,,,0.00,weatherlink.com 1.10,2013-04-22 02:03:00,
2013-04-21 22:18:00,30.6,19.0,30.67,North,11,0.0,-999.0,62,-99.99,,,0.00,weatherlink.com 1.10,2013-04-22 02:18:00,
2013-04-21 22:33:00,30.6,20.0,30.68,North,11,0.0,-999.0,64,-99.99,,,0.00,weatherlink.com 1.10,2013-04-22 02:33:00,
2013-04-21 22:48:00,29.9,20.0,30.67,North,11,0.0,-999.0,68,-99.99,,,0.00,weatherlink.com 1.10,2013-04-22 02:48:00,
2013-04-21 23:03:00,29.4,20.0,30.67,North,11,0.0,-999.0,69,-99.99,,,0.00,weatherlink.com 1.10,2013-04-22 03:03:00,
2013-04-21 23:18:00,29.0,20.0,30.67,North,11,0.0,-999.0,69,-99.99,,,0.00,weatherlink.com 1.10,2013-04-22 03:18:00,
2013-04-21 23:33:00,29.0,20.0,30.68,North,11,0.0,-999.0,68,-99.99,,,0.00,weatherlink.com 1.10,2013-04-22 03:33:00,
2013-04-21 23:48:00,29.0,19.0,30.67,North,11,0.0,-999.0,67,-99.99,,,0.00,weatherlink.com 1.10,2013-04-22 03:48:00,